Location: Capelle
(50.3413°N, 1.9974°E)
Time: 00:01:18
(UTC+00:00)

SL-8 Rocket - Pass Details

Date: 12 January 2026
Orbit: 955 x 990 km, 82.9° (Epoch: 9 February)

Event Time Altitude Azimuth Distance (km) Brightness Sun altitude
Rises 16:50:05 0° 354° (N) 3,685 6.8 -5.9°
Reaches altitude 10° 16:52:50 10° 2° (N) 2,728 6.1 -6.3°
Maximum altitude 16:58:37 39° 70° (ENE) 1,427 4.4 -7.2°
Drops below altitude 10° 17:04:19 10° 138° (SE) 2,691 6.1 -8.0°
Sets 17:06:59 0° 146° (SE) 3,629 6.9 -8.4°
